SL-16 DEB, 18527

Orbit data source: Space-Track

SL-16 DEB, 18527 is space debris in LEO originally from a launch on Wed, 18 Mar 1987 UTC launched from the Tyuratam Missile And Space Complex (TTMTR). Debris objects in space refer to the collection of defunct objects orbiting the Earth. Examples of debris include non-operational satellites, rocket bodies, and fragments generated from explosions, collisions, or faulty payload assembly.

Loading next visibility...
Identifier
18527, 1987-027E
Orbit
LEO
Country
Flag of CISCIS
Related business
Manufacturer
Yuzhnoe
Mission
Spacecraft
Bus & Motor
SEP MOTOR COVER, Unknown motor
Mass
~0 kg wet, ~1 kg dry
Launch date (UTC)
1987-03-18 (39 years ago)
Launch vehicle
Unknown
Launch site
Tyuratam Missile And Space Complex (TTMTR)
Object type
Payload
Rocket body
Debris
Shape & HBR
Unknown
Radar Cross Section
Small (<0.1 m²)

Expand to show TLE details & history
Last TLE update: 9 hours ago

TLE from 9 hours ago
0 SL-16 DEB
1 18527U 87027E   25258.61802191  .00000069  00000-0  10138-3 0  9998
2 18527  70.9954 104.0425 0196370 299.9283  58.2443 13.75719184931435
Epoch: 2025-09-15T14:49Z
TLE epoch observation values (Epoch: 2025-09-15T14:49:57.093Z)
Latitude
-0.00001°
Longitude
-113.26548°
Altitude
907.503 km
Speed
7.436 km/s
True Right ascension
06h 56m 10s
True Declination
0° 00' 00"
Sunlit
Object was in daylight at epoch
Visualization orbit readout
Latitude
Unknown
Longitude
Unknown
Altitude
Unknown
Speed
Unknown
Apparent Right ascension
Unknown
Apparent Declination
Unknown
Sunlit
N/A
Visualization observer readout
Local Sidereal Time
16:15:10
Azimuth
Unknown
Elevation
Unknown
Doppler factor
Unknown
Orbital elements
Apogee altitude
1,121.507 km
Perigee altitude
832.638 km
Semi-major axis
7,355.209 km
Eccentricity
0.01964
Inclination
70.9954°
RAAN
104.0425°
Arg. of periapsis
299.9283°
True anomaly
60.18233°
Mean anomaly
58.2443°
Eccentric anomaly
59.21084°
Mean motion
3.44073 °/min
Orbital period
104.63 mins
BSTAR
0.00010138
Loading maneuver chart data...
Computing Atmospheric mass density...
Loading historical data...
Loading historical data...
Loading historical data...
Loading historical data...
Loading historical data...
Loading historical data...
Loading historical data...

Documentation

Showing up to 5 results
|